Location: Prairie State College
(41.5244°N, 87.6382°W)
Time: 12:02:59
(UTC-06:00)

Amateur Radio Satellites - All Passes

Search period start: 28 November 2014 11:32
Search period end: 29 November 2014 11:32
Location: Prairie State College, 41.5244°N, 87.6382°W

Satellite Date Start Highest point End Downlink Frequencies (MHz)
Time Altitude Azimuth
TISAT 1 28 Nov 11:35:46 11:39:41 37° 98° (E) 11:43:34 437.305
ZACube-1 28 Nov 11:37:04 11:38:59 13° 297° (WNW) 11:40:56 437.345
VELOX 1 28 Nov 11:46:52 11:49:46 17° 296° (WNW) 11:52:38 145.980
ITAMSAT 1 28 Nov 11:53:08 11:56:13 16° 60° (ENE) 11:59:19 435.822/435.867
SPROUT 28 Nov 11:53:42 11:57:54 53° 100° (E) 12:02:04 437.525
ESTCUBE 1 28 Nov 11:53:59 11:58:06 35° 290° (WNW) 12:02:11 437.505/2401.250
VERMONT LUNAR 28 Nov 11:58:55 12:00:20 12° 146° (SE) 12:01:45 437.305
ITUPSAT 1 28 Nov 12:02:02 12:02:49 10° 89° (E) 12:03:37 437.325
50 SAT 28 Nov 12:07:49 12:08:48 11° 298° (WNW) 12:09:48 437.505
SWISSCUBE 28 Nov 12:10:12 12:12:54 15° 91° (E) 12:15:35 437.505
CUBEBUG 1 28 Nov 12:17:26 12:20:39 21° 294° (WNW) 12:23:51 437.445
CUSAT 1 28 Nov 12:22:09 12:24:46 77° 100° (E) 12:27:24 437.405
YUBILEINY 28 Nov 12:28:21 12:36:41 47° 74° (ENE) 12:44:55 435.215
AO-7 28 Nov 12:29:36 12:30:48 10° 40° (NE) 12:32:00 29.400- 29.500
Oscar 19 28 Nov 12:30:53 12:35:59 85° 76° (ENE) 12:41:09 437.125/150
Gurwin Techsat 1B 28 Nov 12:39:32 12:43:44 25° 64° (ENE) 12:47:57 435.225
BEESAT 28 Nov 12:39:34 12:43:40 27° 96° (E) 12:47:44 436.000
SO-50 28 Nov 12:41:35 12:45:33 25° 248° (WSW) 12:49:32 436.795
AUBIESAT-1 28 Nov 12:55:20 12:59:57 39° 102° (ESE) 13:04:22 437.475
DANDE 28 Nov 13:00:22 13:02:45 28° 284° (WNW) 13:05:05 436.750
M-CUBED/EXP-1 PRIME 28 Nov 13:02:23 13:07:12 50° 104° (ESE) 13:11:50 437.505
TISAT 1 28 Nov 13:12:17 13:15:16 19° 294° (WNW) 13:18:15 437.305
MaSat-1 28 Nov 13:16:36 13:17:30 11° 108° (ESE) 13:18:23 437.345
ITAMSAT 1 28 Nov 13:29:55 13:35:07 70° 258° (WSW) 13:40:20 435.822/435.867
SPROUT 28 Nov 13:31:13 13:33:33 15° 296° (WNW) 13:35:52 437.525
VERMONT LUNAR 28 Nov 13:34:48 13:38:13 42° 161° (SSE) 13:41:40 437.305
PHONESAT 2.4 28 Nov 13:35:00 13:38:22 33° 158° (SSE) 13:41:45 2401.200-2431.200
ITUPSAT 1 28 Nov 13:36:28 13:41:18 81° 285° (WNW) 13:46:05 437.325
O/OREOS (USA 219) 28 Nov 13:45:08 13:48:03 17° 54° (NE) 13:50:58 437.305
SWISSCUBE 28 Nov 13:46:25 13:51:08 58° 287° (WNW) 13:55:49 437.505
KKS-1 28 Nov 13:59:12 14:03:20 37° 98° (E) 14:07:27 437.445
RS-15 28 Nov 14:04:10 14:13:09 31° 104° (ESE) 14:22:02 29.354- 29.394
AO-7 28 Nov 14:13:43 14:21:27 46° 62° (ENE) 14:29:13 29.400- 29.500
Oscar 19 28 Nov 14:14:42 14:15:58 11° 272° (W) 14:17:15 437.125/150
HORYU 2 28 Nov 14:15:50 14:20:16 85° 76° (ENE) 14:24:44 437.375
BEESAT 28 Nov 14:17:16 14:21:30 32° 292° (WNW) 14:25:43 436.000
Gurwin Techsat 1B 28 Nov 14:18:22 14:23:25 44° 261° (W) 14:28:31 435.225
YUBILEINY 28 Nov 14:25:29 14:33:16 39° 274° (W) 14:41:01 435.215
AUBIESAT-1 28 Nov 14:30:38 14:34:41 26° 299° (WNW) 14:38:39 437.475
M-CUBED/EXP-1 PRIME 28 Nov 14:38:08 14:41:50 22° 301° (WNW) 14:45:28 437.505
STARS 28 Nov 14:48:57 14:53:22 89° 104° (ESE) 14:57:46 437.465
MaSat-1 28 Nov 14:49:18 14:51:45 25° 300° (WNW) 14:54:02 437.345
VERMONT LUNAR 28 Nov 15:12:55 15:16:32 77° 178° (S) 15:20:10 437.305
PHONESAT 2.4 28 Nov 15:13:14 15:16:56 73° 174° (S) 15:20:39 2401.200-2431.200
O/OREOS (USA 219) 28 Nov 15:23:25 15:27:47 53° 252° (WSW) 15:32:08 437.305
JAS-2 28 Nov 15:29:22 15:36:38 46° 67° (ENE) 15:43:59 435.910
CUTE-I 28 Nov 15:36:23 15:37:32 11° 56° (ENE) 15:38:40 437.470
KKS-1 28 Nov 15:36:25 15:39:44 21° 294° (WNW) 15:43:03 437.445
AO-7 28 Nov 16:06:32 16:14:14 42° 261° (W) 16:22:02 29.400- 29.500
RS-15 28 Nov 16:13:31 16:24:27 74° 306° (NW) 16:35:28 29.354- 29.394
Cubesat XI-IV 28 Nov 16:31:27 16:36:14 34° 67° (ENE) 16:41:01 437.490
VERMONT LUNAR 28 Nov 16:51:22 16:54:55 53° 195° (SSW) 16:58:27 437.305
PHONESAT 2.4 28 Nov 16:51:58 16:55:39 63° 191° (S) 16:59:20 2401.200-2431.200
MOZHAYETS 4 28 Nov 17:00:12 17:04:53 88° 284° (WNW) 17:09:32
PRISM 28 Nov 17:10:40 17:13:49 20° 94° (E) 17:16:56 437.425
CUTE-I 28 Nov 17:11:20 17:16:40 75° 74° (ENE) 17:22:02 437.470
JAS-2 28 Nov 17:14:29 17:21:36 41° 265° (W) 17:28:55 435.910
Cubesat XI-IV 28 Nov 18:11:33 18:16:17 32° 264° (W) 18:21:03 437.490
GONETS M04 28 Nov 18:18:56 18:27:32 52° 76° (ENE) 18:36:00
AIST 1 28 Nov 18:24:03 18:27:49 29° 90° (E) 18:31:37
RS-15 28 Nov 18:30:11 18:39:06 28° 335° (NNW) 18:48:10 29.354- 29.394
VERMONT LUNAR 28 Nov 18:30:28 18:32:56 17° 210° (SSW) 18:35:23 437.305
PHONESAT 2.4 28 Nov 18:31:05 18:34:06 23° 207° (SSW) 18:37:06 2401.200-2431.200
PCSat 28 Nov 18:33:07 18:38:25 60° 115° (ESE) 18:43:46 145.827
CANX-2 28 Nov 18:36:22 18:37:32 11° 62° (ENE) 18:38:43 2200.000
AIST 2 28 Nov 18:37:08 18:39:37 15° 109° (ESE) 18:42:08 435.215
PRISM 28 Nov 18:45:36 18:49:27 34° 290° (WNW) 18:53:15 437.425
CUBESAT XI-V 28 Nov 18:49:57 18:54:38 85° 284° (WNW) 18:59:15 437.345
GOMX 1 28 Nov 18:50:11 18:51:37 11° 63° (ENE) 18:53:01 467.674
STRAND 1 28 Nov 18:53:16 18:58:25 88° 104° (ESE) 19:03:30 437.568
CUTE-I 28 Nov 18:54:41 18:57:17 14° 270° (W) 18:59:54 437.470
BEESAT 3 28 Nov 19:07:41 19:11:45 74° 121° (ESE) 19:15:55 437.485
CUTE 1.7 + AOD 2 28 Nov 19:08:13 19:11:29 22° 67° (ENE) 19:14:47 437.475
HO-68 28 Nov 19:09:53 19:16:40 47° 66° (ENE) 19:23:28 435.675
BEESAT 2 28 Nov 19:25:36 19:29:43 80° 303° (WNW) 19:33:56 435.950
DOVE 4 28 Nov 19:29:58 19:33:21 22° 68° (ENE) 19:36:38 437.250
BRITE-PL 28 Nov 19:30:33 19:35:08 42° 72° (ENE) 19:39:25 437.365/2234.400
SEEDS 28 Nov 19:36:38 19:40:31 39° 71° (ENE) 19:44:27 437.485
DELFI C3 28 Nov 19:39:20 19:41:22 14° 64° (ENE) 19:43:23 145.870
CINEMA 3 28 Nov 19:44:04 19:46:57 18° 66° (ENE) 19:49:48 145.822/145.860
UKube-1 28 Nov 19:46:41 19:49:45 19° 65° (ENE) 19:52:50 .
AAUSAT CUBESAT 2 28 Nov 19:47:20 19:51:11 38° 71° (ENE) 19:55:04 437.432
Oscar 11 28 Nov 19:55:08 19:58:38 25° 68° (ENE) 20:02:10 145.826/435.025
FUNcube-1 28 Nov 19:56:50 19:57:53 11° 62° (ENE) 19:58:55 145.935
AIST 1 28 Nov 20:01:52 20:05:28 24° 287° (WNW) 20:09:05
COMPASS 1 28 Nov 20:04:28 20:08:36 69° 75° (ENE) 20:12:47 437.405
CANX-2 28 Nov 20:08:41 20:12:53 71° 258° (WSW) 20:17:07 2200.000
AIST 2 28 Nov 20:13:40 20:17:48 53° 306° (NW) 20:22:02 435.215
GONETS M04 28 Nov 20:16:19 20:23:57 35° 276° (W) 20:31:33
PCSat 28 Nov 20:17:59 20:22:15 23° 314° (NW) 20:26:32 145.827
HUMSAT D 28 Nov 20:18:41 20:20:02 11° 63° (ENE) 20:21:24 437.325/437.525
DX 1 28 Nov 20:24:00 20:28:12 48° 72° (ENE) 20:32:25 434.975-435.025
GOMX 1 28 Nov 20:24:32 20:29:14 75° 258° (WSW) 20:33:40 467.674
UWE-3 28 Nov 20:27:51 20:31:26 28° 69° (ENE) 20:34:59 435.000/436.395/437.385
CUBEBUG 2 28 Nov 20:33:43 20:37:37 37° 71° (ENE) 20:41:28 437.445
STRAND 1 28 Nov 20:34:47 20:36:50 12° 302° (WNW) 20:38:53 437.568
CUTE 1.7 + AOD 2 28 Nov 20:43:30 20:47:15 31° 264° (W) 20:51:03 437.475
BEESAT 3 28 Nov 20:48:05 20:50:29 15° 319° (NW) 20:52:54 437.485
RS-15 28 Nov 20:48:38 20:56:39 22° 11° (N) 21:04:50 29.354- 29.394
ZACube-1 28 Nov 20:55:29 20:59:31 48° 73° (ENE) 21:03:31 437.345
HO-68 28 Nov 20:58:05 21:04:29 34° 263° (W) 21:10:56 435.675
DOVE 4 28 Nov 21:06:49 21:10:58 35° 262° (W) 21:14:56 437.250
BEESAT 2 28 Nov 21:07:06 21:08:43 12° 322° (NW) 21:10:21 435.950
VELOX 1 28 Nov 21:07:21 21:11:35 43° 71° (ENE) 21:15:50 145.980
BRITE-PL 28 Nov 21:10:12 21:13:46 20° 266° (W) 21:17:10 437.365/2234.400
DELFI C3 28 Nov 21:12:15 21:16:13 52° 260° (W) 21:20:14 145.870
SEEDS 28 Nov 21:13:43 21:16:31 17° 268° (W) 21:19:21 437.485
ESTCUBE 1 28 Nov 21:17:52 21:21:24 23° 66° (ENE) 21:24:56 437.505/2401.250
50 SAT 28 Nov 21:19:09 21:22:58 43° 72° (ENE) 21:26:48 437.505
CINEMA 3 28 Nov 21:19:50 21:23:55 40° 262° (W) 21:27:54 145.822/145.860
UKube-1 28 Nov 21:21:32 21:25:38 40° 261° (W) 21:29:45 .
AAUSAT CUBESAT 2 28 Nov 21:24:14 21:27:01 17° 267° (W) 21:29:50 437.432
FUNcube-1 28 Nov 21:29:31 21:33:41 69° 258° (WSW) 21:37:50 145.935
Oscar 11 28 Nov 21:30:57 21:34:42 29° 264° (W) 21:38:28 145.826/435.025
AISAT 28 Nov 21:35:18 21:39:47 89° 76° (ENE) 21:44:16 437.250
CUBEBUG 1 28 Nov 21:37:05 21:41:03 33° 69° (ENE) 21:45:01 437.445
ISS 28 Nov 21:38:07 21:41:08 35° 137° (SE) 21:44:11 145.825
POPSAT HIP 1 28 Nov 21:44:50 21:47:07 14° 92° (E) 21:49:24 437.405
HUMSAT D 28 Nov 21:51:14 21:55:20 64° 259° (W) 21:59:25 437.325/437.525
TIGRISAT 28 Nov 21:52:32 21:56:21 27° 96° (E) 22:00:13 435.000
DANDE 28 Nov 21:56:07 21:59:03 15° 73° (ENE) 22:02:27 436.750
DX 1 28 Nov 22:02:04 22:04:42 16° 268° (W) 22:07:20 434.975-435.025
UWE-3 28 Nov 22:04:34 22:07:58 24° 265° (W) 22:11:22 435.000/436.395/437.385
UNISAT 6 28 Nov 22:07:40 22:11:54 40° 98° (E) 22:16:12 437.425
CUBEBUG 2 28 Nov 22:11:35 22:14:28 18° 267° (W) 22:17:19 437.445
POLYITAN 1 28 Nov 22:19:04 22:22:57 35° 98° (E) 22:26:50 437.675
QB50P2 28 Nov 22:19:47 22:23:42 35° 98° (E) 22:27:35 145.880/145.840
DUCHIFAT 1 28 Nov 22:23:41 22:27:38 38° 98° (E) 22:31:34 145.980
TISAT 1 28 Nov 22:28:51 22:32:33 30° 69° (ENE) 22:36:16 437.305
ZACube-1 28 Nov 22:34:01 22:36:10 14° 269° (W) 22:38:20 437.345
ANTELSAT 28 Nov 22:36:38 22:41:09 83° 103° (ESE) 22:45:44 437.575/2403.000
NANOSAT C BR1 28 Nov 22:43:28 22:47:41 66° 102° (ESE) 22:51:52 145.865
VELOX 1 28 Nov 22:45:21 22:48:22 18° 267° (W) 22:51:24 145.980
BUGSAT 1 28 Nov 22:47:57 22:51:59 60° 101° (E) 22:55:58 437.445
SPROUT 28 Nov 22:48:12 22:52:16 42° 72° (ENE) 22:56:20 437.525
MaSat-1 28 Nov 22:52:45 22:54:18 16° 58° (ENE) 22:55:54 437.345
QB50P1 28 Nov 22:53:49 22:58:04 87° 103° (ESE) 23:02:17 145.935-145.965
ESTCUBE 1 28 Nov 22:53:52 22:58:03 36° 262° (W) 23:02:17 437.505/2401.250
50 SAT 28 Nov 22:56:17 22:58:30 14° 268° (W) 23:00:43 437.505
CUSAT 1 28 Nov 22:57:39 23:02:36 65° 80° (E) 23:09:15 437.405
RS-15 28 Nov 23:02:17 23:12:55 46° 43° (NE) 23:23:55 29.354- 29.394
ITUPSAT 1 28 Nov 23:08:26 23:10:58 14° 61° (ENE) 23:13:29 437.325
CUBEBUG 1 28 Nov 23:13:54 23:17:27 23° 265° (W) 23:21:01 437.445
ISS 28 Nov 23:14:48 23:17:48 32° 335° (NNW) 23:20:48 145.825
SWISSCUBE 28 Nov 23:17:09 23:20:29 19° 63° (ENE) 23:23:49 437.505
POPSAT HIP 1 28 Nov 23:19:14 23:23:18 48° 287° (WNW) 23:27:21 437.405
TIGRISAT 28 Nov 23:29:14 23:33:03 29° 291° (WNW) 23:36:57 435.000
DANDE 28 Nov 23:37:44 23:42:33 68° 262° (W) 23:49:05 436.750
AUBIESAT-1 28 Nov 23:44:51 23:48:53 49° 67° (ENE) 23:53:18 437.475
UNISAT 6 28 Nov 23:45:09 23:48:27 21° 294° (WNW) 23:51:47 437.425
BEESAT 28 Nov 23:46:23 23:50:38 33° 68° (ENE) 23:54:55 436.000
M-CUBED/EXP-1 PRIME 28 Nov 23:52:18 23:56:25 65° 69° (ENE) 00:00:56 437.505
POLYITAN 1 28 Nov 23:55:34 23:58:41 20° 294° (WNW) 00:01:48 437.675
QB50P2 28 Nov 23:56:18 23:59:23 20° 294° (WNW) 00:02:29 145.880/145.840
DUCHIFAT 1 29 Nov 00:00:18 00:03:14 19° 294° (WNW) 00:06:09 145.980
TISAT 1 29 Nov 00:04:57 00:08:23 24° 265° (W) 00:11:50 437.305
ANTELSAT 29 Nov 00:16:16 00:17:19 11° 299° (WNW) 00:18:22 437.575/2403.000
NANOSAT C BR1 29 Nov 00:21:32 00:23:01 12° 298° (WNW) 00:24:30 145.865
BUGSAT 1 29 Nov 00:25:28 00:26:58 12° 298° (WNW) 00:28:28 437.445
SPROUT 29 Nov 00:25:42 00:28:32 17° 268° (W) 00:31:23 437.525
MaSat-1 29 Nov 00:27:49 00:28:33 11° 252° (WSW) 00:29:19 437.345
CUSAT 1 29 Nov 00:42:12 00:45:37 17° 269° (W) 00:49:35 437.405
Oscar 19 29 Nov 00:42:43 00:47:13 30° 96° (E) 00:51:43 437.125/150
ITUPSAT 1 29 Nov 00:43:28 00:48:16 70° 258° (WSW) 00:53:06 437.325
ISS 29 Nov 00:53:15 00:55:12 15° 354° (N) 00:57:08 145.825
SWISSCUBE 29 Nov 00:53:18 00:57:57 50° 260° (W) 01:02:39 437.505
KKS-1 29 Nov 00:57:48 01:01:50 35° 70° (ENE) 01:05:53 437.445
RS-15 29 Nov 01:14:46 01:25:43 61° 246° (WSW) 01:37:10 29.354- 29.394
SO-50 29 Nov 01:18:38 01:20:14 12° 107° (ESE) 01:21:51 436.795
AUBIESAT-1 29 Nov 01:21:39 01:24:14 16° 265° (W) 01:26:57 437.475
BEESAT 29 Nov 01:24:27 01:28:29 27° 265° (W) 01:32:33 436.000
YUBILEINY 29 Nov 01:29:05 01:37:31 54° 90° (E) 01:45:56 435.215
M-CUBED/EXP-1 PRIME 29 Nov 01:30:26 01:32:01 12° 267° (W) 01:33:38 437.505
PCSat 29 Nov 01:40:24 01:41:26 11° 34° (NE) 01:42:27 145.827
ITAMSAT 1 29 Nov 01:42:51 01:47:45 41° 98° (E) 01:52:35 435.822/435.867
STARS 29 Nov 01:46:13 01:50:37 80° 75° (ENE) 01:55:01 437.465
HORYU 2 29 Nov 02:08:33 02:11:26 17° 92° (E) 02:14:18 437.375
BEESAT 2 29 Nov 02:10:05 02:10:55 11° 36° (NE) 02:11:44 435.950
AO-7 29 Nov 02:18:32 02:21:07 12° 86° (E) 02:23:42 29.400- 29.500
Oscar 19 29 Nov 02:21:56 02:26:33 34° 292° (WNW) 02:31:10 437.125/150
ISS 29 Nov 02:30:24 02:32:48 18° 15° (NNE) 02:35:11 145.825
Gurwin Techsat 1B 29 Nov 02:34:05 02:39:25 74° 103° (ESE) 02:44:42 435.225
KKS-1 29 Nov 02:35:09 02:38:34 21° 266° (W) 02:41:59 437.445
SO-50 29 Nov 02:55:34 03:00:04 76° 304° (NW) 03:04:45 436.795
AIST 2 29 Nov 02:58:10 03:00:41 15° 40° (NE) 03:03:11 435.215
PCSat 29 Nov 03:20:55 03:26:12 50° 55° (NE) 03:31:26 145.827
ITAMSAT 1 29 Nov 03:22:50 03:27:00 25° 295° (WNW) 03:31:08 435.822/435.867
YUBILEINY 29 Nov 03:26:50 03:34:37 34° 290° (WNW) 03:42:26 435.215
BEESAT 3 29 Nov 03:27:37 03:31:41 47° 53° (NE) 03:35:42 437.485
RS-15 29 Nov 03:33:03 03:35:40 11° 266° (W) 03:38:18 29.354- 29.394
HORYU 2 29 Nov 03:44:01 03:48:21 47° 288° (WNW) 03:52:39 437.375
BEESAT 2 29 Nov 03:45:50 03:50:02 66° 56° (NE) 03:54:10 435.950
O/OREOS (USA 219) 29 Nov 03:58:13 04:01:03 17° 100° (E) 04:03:53 437.305
MOZHAYETS 4 29 Nov 04:02:13 04:06:49 88° 76° (ENE) 04:11:28
PRISM 29 Nov 04:02:27 04:05:09 17° 64° (ENE) 04:07:52 437.425
ISS 29 Nov 04:06:36 04:09:54 70° 34° (NNE) 04:13:11 145.825
AO-7 29 Nov 04:06:59 04:15:21 68° 105° (ESE) 04:23:39 29.400- 29.500
Gurwin Techsat 1B 29 Nov 04:15:42 04:18:44 16° 300° (WNW) 04:21:47 435.225
CUBESAT XI-V 29 Nov 04:20:04 04:21:20 11° 60° (ENE) 04:22:36 437.345
JAS-2 29 Nov 04:25:01 04:31:15 36° 94° (E) 04:36:46 435.910
STRAND 1 29 Nov 04:32:36 04:35:48 17° 61° (ENE) 04:39:00 437.568
AIST 2 29 Nov 04:35:33 04:39:52 78° 239° (WSW) 04:44:06 435.215
SO-50 29 Nov 04:39:11 04:41:28 13° 324° (NW) 04:43:47 436.795
Cubesat XI-IV 29 Nov 04:50:26 04:52:36 12° 89° (E) 04:54:46 437.490
PCSat 29 Nov 05:05:02 05:09:15 24° 253° (WSW) 05:13:28 145.827
BEESAT 3 29 Nov 05:06:51 05:09:32 17° 250° (WSW) 05:12:11 437.485
BEESAT 2 29 Nov 05:26:10 05:27:45 12° 252° (WSW) 05:29:20 435.950
CUTE-I 29 Nov 05:28:52 05:33:28 29° 96° (E) 05:38:02 437.470
O/OREOS (USA 219) 29 Nov 05:35:44 05:40:03 46° 297° (WNW) 05:44:23 437.305
PRISM 29 Nov 05:36:19 05:40:21 44° 261° (W) 05:44:25 437.425
ISS 29 Nov 05:44:26 05:46:09 14° 230° (SW) 05:47:52 145.825
CUBESAT XI-V 29 Nov 05:53:19 05:58:03 87° 257° (WSW) 06:02:48 437.345
AO-7 29 Nov 06:00:37 06:07:30 30° 304° (NW) 06:14:23 29.400- 29.500
AIST 1 29 Nov 06:08:07 06:12:31 85° 82° (E) 06:16:50
STRAND 1 29 Nov 06:09:21 06:14:27 65° 258° (WSW) 06:19:34 437.568
JAS-2 29 Nov 06:09:57 06:16:19 40° 295° (WNW) 06:22:00 435.910
Cubesat XI-IV 29 Nov 06:27:57 06:33:18 80° 286° (WNW) 06:38:36 437.490
CUTE-I 29 Nov 07:08:45 07:13:34 36° 292° (WNW) 07:18:21 437.470
GONETS M04 29 Nov 07:19:38 07:28:12 60° 91° (E) 07:36:50
BRITE-PL 29 Nov 07:37:54 07:38:23 10° 90° (E) 07:38:52 437.365/2234.400
COMPASS 1 29 Nov 07:50:45 07:52:09 11° 90° (E) 07:53:32 437.405
CANX-2 29 Nov 07:54:59 07:58:10 20° 93° (E) 08:01:20 2200.000
Cubesat XI-IV 29 Nov 08:10:57 08:12:30 11° 303° (WNW) 08:14:04 437.490
HO-68 29 Nov 08:24:38 08:31:31 47° 100° (E) 08:38:20 435.675
GOMX 1 29 Nov 08:26:27 08:30:03 27° 96° (E) 08:33:45 467.674
CUTE 1.7 + AOD 2 29 Nov 08:28:27 08:32:33 42° 98° (E) 08:36:38 437.475
POPSAT HIP 1 29 Nov 08:39:19 08:41:05 12° 62° (ENE) 08:42:51 437.405
TIGRISAT 29 Nov 08:52:20 08:55:44 24° 67° (ENE) 08:59:09 435.000
DELFI C3 29 Nov 08:53:37 08:56:49 21° 94° (E) 09:00:01 145.870
SEEDS 29 Nov 08:56:41 09:00:59 78° 102° (ESE) 09:05:15 437.485
DOVE 4 29 Nov 09:05:08 09:09:17 55° 100° (E) 09:13:35 437.250
AAUSAT CUBESAT 2 29 Nov 09:06:06 09:10:21 74° 102° (ESE) 09:14:35 437.432
UNISAT 6 29 Nov 09:07:31 09:11:23 35° 70° (ENE) 09:15:17 437.425
UKube-1 29 Nov 09:09:23 09:13:17 31° 97° (E) 09:17:08 .
POLYITAN 1 29 Nov 09:12:59 09:16:38 28° 69° (ENE) 09:20:16 437.675
BRITE-PL 29 Nov 09:13:13 09:17:19 62° 285° (WNW) 09:21:32 437.365/2234.400
QB50P2 29 Nov 09:13:29 09:17:08 29° 69° (ENE) 09:20:48 145.880/145.840
CINEMA 3 29 Nov 09:14:11 09:18:15 42° 99° (E) 09:22:26 145.822/145.860
DUCHIFAT 1 29 Nov 09:16:59 09:20:42 30° 69° (ENE) 09:24:25 145.980
Oscar 11 29 Nov 09:17:39 09:21:53 48° 99° (E) 09:26:05 145.826/435.025
GONETS M04 29 Nov 09:17:57 09:25:31 31° 292° (WNW) 09:33:09
FUNcube-1 29 Nov 09:18:36 09:21:54 21° 94° (E) 09:25:15 145.935
COMPASS 1 29 Nov 09:24:03 09:28:16 61° 286° (WNW) 09:32:28 437.405
AISAT 29 Nov 09:27:43 09:30:36 17° 93° (E) 09:33:27 437.250
CANX-2 29 Nov 09:30:16 09:34:12 36° 289° (WNW) 09:38:08 2200.000
ANTELSAT 29 Nov 09:36:17 09:40:32 74° 75° (ENE) 09:44:49 437.575/2403.000
HUMSAT D 29 Nov 09:36:30 09:39:38 20° 94° (E) 09:42:46 437.325/437.525
NANOSAT C BR1 29 Nov 09:36:34 09:40:41 50° 73° (ENE) 09:44:48 145.865
BUGSAT 1 29 Nov 09:38:21 09:42:23 44° 72° (ENE) 09:46:23 437.445
QB50P1 29 Nov 09:46:54 09:51:06 67° 75° (ENE) 09:55:20 145.935-145.965
SO-50 29 Nov 09:47:25 09:50:38 17° 39° (NE) 09:53:52 436.795
DX 1 29 Nov 09:48:22 09:52:44 89° 100° (E) 09:57:04 434.975-435.025
UWE-3 29 Nov 09:53:19 09:57:34 62° 101° (E) 10:01:55 435.000/436.395/437.385
CUBEBUG 2 29 Nov 10:00:48 10:05:06 88° 103° (ESE) 10:09:31 437.445
GOMX 1 29 Nov 10:04:43 10:08:07 25° 291° (WNW) 10:11:36 467.674
CUTE 1.7 + AOD 2 29 Nov 10:05:16 10:08:09 18° 294° (WNW) 10:11:02 437.475
POPSAT HIP 1 29 Nov 10:12:15 10:16:28 63° 259° (W) 10:20:41 437.405
HO-68 29 Nov 10:12:41 10:19:01 35° 298° (WNW) 10:25:19 435.675
ZACube-1 29 Nov 10:20:07 10:24:23 78° 284° (WNW) 10:28:45 437.345
DELFI C3 29 Nov 10:28:30 10:32:09 31° 290° (WNW) 10:35:47 145.870
TIGRISAT 29 Nov 10:28:41 10:32:23 29° 264° (W) 10:36:07 435.000
VELOX 1 29 Nov 10:34:26 10:38:53 88° 104° (ESE) 10:43:17 145.980
50 SAT 29 Nov 10:34:53 10:38:58 78° 103° (ESE) 10:43:04 437.505
SEEDS 29 Nov 10:35:25 10:36:11 10° 299° (WNW) 10:36:56 437.485
AAUSAT CUBESAT 2 29 Nov 10:44:25 10:45:26 11° 298° (WNW) 10:46:27 437.432
DOVE 4 29 Nov 10:44:37 10:46:40 14° 296° (WNW) 10:48:46 437.250
UNISAT 6 29 Nov 10:45:11 10:48:18 20° 266° (W) 10:51:26 437.425
UKube-1 29 Nov 10:45:50 10:49:17 23° 293° (WNW) 10:52:43 .
ESTCUBE 1 29 Nov 10:46:24 10:50:46 45° 99° (E) 10:55:05 437.505/2401.250
POLYITAN 1 29 Nov 10:49:04 10:52:33 25° 265° (W) 10:56:03 437.675
QB50P2 29 Nov 10:49:34 10:53:03 24° 265° (W) 10:56:32 145.880/145.840
CINEMA 3 29 Nov 10:52:20 10:55:12 18° 294° (WNW) 10:58:06 145.822/145.860
DUCHIFAT 1 29 Nov 10:53:13 10:56:35 23° 265° (W) 10:59:58 145.980
FUNcube-1 29 Nov 10:54:29 10:58:19 33° 290° (WNW) 11:02:12 145.935
Oscar 11 29 Nov 10:54:58 10:57:40 16° 296° (WNW) 11:00:22 145.826/435.025
CUBEBUG 1 29 Nov 11:01:59 11:06:19 64° 101° (ESE) 11:10:36 437.445
AISAT 29 Nov 11:03:15 11:07:27 44° 289° (WNW) 11:11:38 437.250
HUMSAT D 29 Nov 11:11:44 11:15:31 34° 289° (WNW) 11:19:19 437.325/437.525
NANOSAT C BR1 29 Nov 11:14:40 11:16:51 14° 269° (W) 11:19:03 145.865
BUGSAT 1 29 Nov 11:15:28 11:18:05 16° 267° (W) 11:20:41 437.445
QB50P1 29 Nov 11:26:47 11:27:26 10° 270° (W) 11:28:05 145.935-145.965
